Regional Weather Roundup
Issued by NWS

Home | Current Version | Previous Version | Graphics & Text | Print | Product List | Glossary On
Versions: 1 2 3 4 5 6 7 8 9 10 11 12 13 14 15 16 17 18 19 20 21 22 23 24 25 26 27 28 29 30 31 32 33 34 35 36 37 38 39 40 41 42 43 44 45 46 47 48 49 50
000
ASUS43 KTOP 251908
RWRKS

WEATHER ROUNDUP FOR KANSAS
NATIONAL WEATHER SERVICE GOODLAND KS
200 PM CDT SAT APR 25 2015

NOTE:  "FAIR" INDICATES FEW OR NO CLOUDS BELOW 12,000 FEET WITH NO
SIGNIFICANT WEATHER AND/OR OBSTRUCTIONS TO VISIBILITY.

KSZ001>006-013>018-027>032-041>047-252000-
NORTHWEST KANSAS

CITY           SKY/WX    TMP DP  RH WIND       PRES   REMARKS
GOODLAND       SUNNY     68  43  40 N10       29.71R
HAYS           PTSUNNY   68  52  56 N13G22    29.66R
HILL CITY      MOSUNNY   70  53  54 N8        29.66F
RUSSELL        CLOUDY    65  53  65 N12       29.66R
$$

KSZ061>065-074>080-084>089-252000-
SOUTHWEST KANSAS

CITY           SKY/WX    TMP DP  RH WIND       PRES   REMARKS
DODGE CITY     SUNNY     75  42  30 NW8G18    29.67F
ELKHART          N/A     77  33  20 NE5         N/A
GARDEN CITY    SUNNY     73  42  32 N8G23     29.67F
GREAT BEND     MOSUNNY   72  55  56 NE13      29.64S
LIBERAL        SUNNY     79  37  22 N15G22    29.70S
$$

KSZ066>073-081>083-090>101-252000-
SOUTHEAST KANSAS

CITY           SKY/WX    TMP DP  RH WIND       PRES   REMARKS
CHANUTE        PTSUNNY   70  54  56 NW18G26   29.57R
COFFEYVILLE    MOSUNNY   78  52  40 W15       29.56S
HUTCHINSON     CLOUDY    69  54  58 N12       29.64R
MEDICINE LODGE   N/A     77  48  35 N9G17     29.62F
NEWTON         PTSUNNY   66  52  59 NW17G23   29.65R
PARSONS        PTSUNNY   76  56  49 W17G26    29.58R
WICHITA INTL   MOSUNNY   75  51  43 NW20G26   29.62R
WICHITA JABRA  MOSUNNY   72  53  51 N20G26    29.62R
WICHITA MCCONL MOSUNNY   74  55  51 N13       29.61S
WINFIELD       SUNNY     77  53  43 NW14      29.62S
$$

KSZ007>012-019>026-033>040-048>060-102>105-252000-
NORTHEAST KANSAS

CITY           SKY/WX    TMP DP  RH WIND       PRES   REMARKS
CONCORDIA      CLOUDY    58  52  80 NW13G36   29.65R
EMPORIA        CLOUDY    64  55  72 NW14G24   29.60R
LAWRENCE       PTSUNNY   64  57  78 N15       29.54R
MANHATTAN      CLOUDY    60  54  80 VRB7      29.62R
MARYSVILLE     CLOUDY    54  52  94 N15       29.63R
OLATHE IND     LGT RAIN  61  58  90 N17G23    29.52R
OLATHE EXE     LGT RAIN  63  60  90 N13       29.51R
SALINA         MOSUNNY   69  55  60 N16G22    29.64R
TOPEKA BILLARD PTSUNNY   66  57  72 N15       29.56R
TOPEKA FORBES  PTSUNNY   65  55  70 N12       29.56R
$$


USA.gov is the U.S. government's official web portal to all federal, state and local government web resources and services.